Champaign, IL

5:10 AM CST on December 15, 2017 (GMT -0600)
Univ Of Illinois-Willard

Weather History for KCMI - May, 2013

Change the Weather History Date:

Saturday, May 4, 2013

  Actual Average Record
Temperature  
Mean Temperature 59 °F 59 °F  
Max Temperature 63 °F 71 °F 82 °F (1999)
Min Temperature 54 °F 47 °F 30 °F (2005)
Degree Days  
Heating Degree Days 6 7  
Month to date heating degree days 13 30  
Since 1 July heating degree days 5538 5694  
Cooling Degree Days 0 1  
Month to date cooling degree days 4 4  
Year to date cooling degree days 12 15  
Growing Degree Days 8 (Base 50)    
Moisture  
Dew Point 54 °F    
Average Humidity 83    
Maximum Humidity 93    
Minimum Humidity 72    
Precipitation  
Precipitation 0.13 in 0.17 in 1.37 in (2017)
Month to date precipitation 0.43 0.65  
Year to date precipitation 12.67 11.26  
Sea Level Pressure  
Sea Level Pressure 29.95 in    
Wind  
Wind Speed 11 mph (ESE)    
Max Wind Speed 22 mph    
Max Gust Speed 26 mph    
Visibility 10 miles    
Events Rain    
T = Trace of Precipitation, MM = Missing Value Source: NWS Daily Summary

Daily Weather History Graph

Daily Weather History Graph

Search for Another Location

Airport or City:

Trip Planner

Search our weather history database for the weather conditions in past years. The results will help you decide how hot, cold, wet, or windy it might be!

Date:

Astronomy

May. 04, 2013 Rise Set
Actual Time 5:49 AM CDT 7:51 PM CDT
Civil Twilight 5:19 AM CDT 8:20 PM CDT
Nautical Twilight 4:43 AM CDT 8:57 PM CDT
Astronomical Twilight 4:04 AM CDT 9:36 PM CDT
Moon 2:47 AM CDT (5/4) 2:48 PM CDT (5/4)
Length of Visible Light 15h 01m
Length of Day
14h 02m
Waning Crescent, 27% of the Moon is Illuminated
May 4
Waning Crescent
May 9
New
May 17
First Quarter
May 24
Full
May 31
Last Quarter

Hourly Weather History & Observations

Time (CDT) Temp. Dew Point Humidity Pressure Visibility Wind Dir Wind Speed Gust Speed Precip Events Conditions
12:53 AM 61.0 °F 57.0 °F 87% 29.88 in 10.0 mi East 12.7 mph - 0.02 in Rain Light Rain
1:53 AM 60.1 °F 57.0 °F 90% 29.87 in 10.0 mi East 11.5 mph - 0.00 in Rain Light Rain
2:53 AM 60.1 °F 57.0 °F 90% 29.87 in 10.0 mi East 12.7 mph - 0.01 in   Mostly Cloudy
3:53 AM 60.1 °F 57.0 °F 90% 29.87 in 10.0 mi East 11.5 mph - N/A   Scattered Clouds
4:53 AM 60.1 °F 57.0 °F 90% 29.86 in 10.0 mi East 11.5 mph - N/A   Clear
5:53 AM 59.0 °F 55.9 °F 90% 29.87 in 10.0 mi East 10.4 mph - N/A   Clear
6:53 AM 60.1 °F 55.9 °F 86% 29.89 in 10.0 mi East 11.5 mph - N/A   Clear
7:53 AM 60.1 °F 54.0 °F 80% 29.90 in 10.0 mi ESE 11.5 mph - N/A   Mostly Cloudy
8:53 AM 62.1 °F 54.0 °F 75% 29.91 in 10.0 mi ESE 13.8 mph - N/A   Partly Cloudy
9:53 AM 62.1 °F 53.1 °F 72% 29.93 in 10.0 mi ESE 12.7 mph - 0.00 in Rain Light Rain
10:53 AM 62.1 °F 53.1 °F 72% 29.93 in 10.0 mi East 10.4 mph - 0.00 in Rain Light Rain
11:53 AM 60.1 °F 53.1 °F 78% 29.94 in 9.0 mi ESE 11.5 mph - 0.01 in Rain Light Rain
12:53 PM 59.0 °F 53.1 °F 81% 29.94 in 10.0 mi ESE 15.0 mph - 0.01 in   Overcast
1:53 PM 59.0 °F 55.0 °F 87% 29.95 in 7.0 mi ESE 15.0 mph - 0.01 in Rain Light Rain
2:53 PM 59.0 °F 55.0 °F 87% 29.96 in 8.0 mi ESE 17.3 mph - 0.02 in Rain Light Rain
3:05 PM 59.0 °F 55.4 °F 88% 29.96 in 8.0 mi ESE 17.3 mph - 0.01 in Rain Light Rain
3:14 PM 59.0 °F 55.4 °F 88% 29.96 in 7.0 mi ESE 15.0 mph - 0.01 in Rain Light Rain
3:53 PM 59.0 °F 55.0 °F 87% 29.95 in 9.0 mi ESE 17.3 mph - 0.02 in Rain Light Rain
4:17 PM 60.8 °F 55.4 °F 82% 29.95 in 10.0 mi ESE 16.1 mph - 0.00 in Rain Light Rain
4:32 PM 60.8 °F 55.4 °F 82% 29.96 in 10.0 mi ESE 13.8 mph - 0.00 in   Overcast
4:53 PM 59.0 °F 55.0 °F 87% 29.96 in 10.0 mi ESE 16.1 mph - 0.01 in Rain Light Rain
5:37 PM 57.2 °F 53.6 °F 88% 29.97 in 10.0 mi SE 11.5 mph - 0.00 in Rain Light Rain
5:53 PM 57.9 °F 53.1 °F 84% 29.98 in 10.0 mi SE 16.1 mph - 0.00 in   Overcast
6:02 PM 57.2 °F 53.6 °F 88% 29.98 in 10.0 mi SE 12.7 mph - 0.00 in Rain Light Rain
6:53 PM 57.0 °F 54.0 °F 89% 30.00 in 6.0 mi SE 11.5 mph - 0.01 in Rain Light Rain
7:05 PM 57.2 °F 53.6 °F 88% 30.00 in 10.0 mi SE 10.4 mph - 0.00 in Rain Light Rain
7:53 PM 55.9 °F 53.1 °F 90% 30.01 in 10.0 mi ESE 10.4 mph - 0.01 in Rain Light Rain
8:00 PM 55.4 °F 53.6 °F 94% 30.01 in 10.0 mi ESE 11.5 mph - 0.00 in Rain Light Rain
8:53 PM 55.0 °F 53.1 °F 93% 30.01 in 10.0 mi East 5.8 mph - 0.01 in   Overcast
9:53 PM 55.0 °F 53.1 °F 93% 30.01 in 10.0 mi Calm Calm - N/A   Mostly Cloudy
10:53 PM 55.0 °F 52.0 °F 89% 30.01 in 10.0 mi SSE 4.6 mph - N/A   Overcast
11:53 PM 54.0 °F 52.0 °F 93% 30.01 in 10.0 mi Calm Calm - 0.00 in Rain Light Rain